INMARSAT 3-F3

Last updated on Sun Apr 12 2026 00:02:50 GMT+0000 (Coordinated Universal Time)

1 24674U 96070A 26101.25794262 -.00000330 00000+0 00000+0 0 9997 2 24674 10.1762 50.2812 0005372 305.9076 49.6429 0.99985600107230
UTC large
Height (km)
Speed (km/s)
/
Latitude / Longitude
Inclination (degrees)
Orbital Period (minutes)
Azimuth
Elevation
Range (km)
Doppler Factor

Next 0 passes for location: London (51.5072 / 0.1276)

Sorry there are no passes over London.
INMARSAT 3-F3